Preview of NWS' New Version of Forecast
This preview is not operational and should not be used for support decisions.
Latest weather observations around

Albuquerque, Albuquerque International Airport (KABQ)

Using English Units (Switch to International System of Units)
Date/ Time (MDT) Wind (mph) Vis. (mi) Weather Sky Cond. Temp (°F) Rel. Humidity Wind Chill (°F) Heat Index (°F) Pressure Precip. (in)
Air Dwpt 6 hour Altimeter (inHg) Sea level (inHg) 1 hr 3 hr 6 hr
Max Min
Jun 19 00:52 NNW 9 10 Mostly Clear FEW120 FEW170 71 36     28%   69 30.09 29.84      
Jun 18 23:52 NNW 10 10 Mostly Clear FEW150 72 35     26%   70 30.1 29.85      
Jun 18 22:52   10 Partly Cloudy FEW140 SCT250 75 34     22%   73 30.09 29.84      
Jun 18 21:52 N 9 10 Partly Cloudy FEW150 SCT250 76 36     23%   74 30.06 29.81      
Jun 18 21:01 N 15 10 Partly Cloudy SCT150 SCT250 78 35     21%   77 30.03        
Jun 18 20:52   10 Partly Cloudy SCT150 SCT250 78 35     21%   77 30.03 29.79      
Jun 18 19:52 SSW 15 10 Partly Cloudy SCT160 SCT250 83 31     15%   80 29.98 29.74      
Jun 18 18:52   10 Partly Cloudy FEW100 SCT150 SCT250 85 35     17%   82 29.98 29.74      
Jun 18 18:13 S 16 10 Partly Cloudy FEW110 SCT150 SCT250 86        %     29.99        
Jun 18 17:52 WSW 17 10 Partly Cloudy FEW110 SCT140 SCT250 89 20     8%   84 29.99 29.74      
Jun 18 16:52 W 10 10 Partly Cloudy SCT110 SCT150 SCT250 88        %     30.01 29.76      
Jun 18 15:52 SW 9 10 Partly Cloudy FEW100 SCT150 SCT250 88 35     15%   84 30.02 29.76      
Jun 18 14:52   10 Partly Cloudy SCT100 SCT200 87 30     13%   83 30.04 29.78      
Jun 18 13:52 W 10 10 Partly Cloudy FEW100 SCT190 SCT250 84 35     17%   81 30.07 29.82      
Jun 18 12:52 5 10 Partly Cloudy FEW090 SCT200 SCT250 81 39     22%   80 30.11 29.87      
Jun 18 11:52 3 10 Partly Cloudy FEW070 SCT250 78 45     31%   77 30.14 29.91      
Jun 18 10:52 3 10 Partly Cloudy FEW060 SCT250 74 46     37%   73 30.15 29.93      
Jun 18 09:52 Calm 10 Partly Cloudy FEW200 SCT300 69 47     45%     30.16 29.95      
Jun 18 08:52 WNW 5 10 Partly Cloudy SCT250 65 48     54%     30.16 29.95      
Jun 18 07:52 NNE 5 10 Partly Cloudy SCT250 62 48     60%     30.15 29.95      
Jun 18 06:52 Calm 10 Mostly Clear FEW250 57 47     69%     30.15 29.96      
Jun 18 05:52 NW 6 10 Partly Cloudy SCT250 57 47     69%     30.14 29.95      
Jun 18 04:52 NNW 7 10 Partly Cloudy SCT250 59 48     67%     30.13 29.95      
Jun 18 03:52 N 6 10 Mostly Clear FEW250 61 48     62%     30.12 29.91      
Jun 18 02:52 NNE 7 10 Mostly Clear FEW150 FEW200 62 48     60%     30.12 29.89      
Jun 18 01:52 N 9 10 Partly Cloudy FEW150 SCT180 63 48     58%     30.11 29.88      
Jun 18 00:52 N 6 10 Mostly Cloudy BKN150 64 47     54%     30.11 29.87      
Jun 17 23:52 Calm 10 Mostly Cloudy BKN130 BKN200 65 46     50%     30.12 29.88      
Jun 17 22:52 NNW 7 10 Mostly Cloudy SCT130 BKN220 66 46     48%     30.12 29.89      
Jun 17 21:52 WNW 10 10 Mostly Cloudy FEW110 SCT170 BKN220 67 47     49%     30.1 29.88      
Jun 17 20:52 NNW 13 10 Mostly Cloudy SCT110 BKN160 BKN250 71 44     38%   70 30.07 29.83      
Jun 17 19:52 N 14 10 Mostly Cloudy SCT100 BKN160 BKN250 71 45     39%   70 30.07 29.85      
Jun 17 18:52 NE 9 10 Mostly Cloudy SCT100 BKN160 BKN250 73 42     33%   72 30.06 29.83      
Jun 17 17:52 NNE 14 10 Mostly Cloudy SCT090 BKN150 BKN250 71 48     44%   70 30.05 29.84 0   0
Jun 17 17:25   10 Mostly Cloudy SCT090 BKN150 BKN250 69 48     47%     30.05   0    
Jun 17 16:52   10 Light Rain FEW060 BKN095 BKN150 OVC250 67 53     61%     30.1 29.89 0    
Jun 17 16:27   10 Light Rain BKN090 BKN200 68 51     55%     30.15   0    
Jun 17 16:13 NW 13 10 Light Rain BKN090 BKN200 70 48     46%     30.12   0    
Jun 17 15:52   10 Light Rain FEW075 BKN090 OVC110 73 44     35%   72 30.09   0    
Jun 17 15:21 WNW 20 10 Cloudy and Windy FEW090 OVC130 78 40     26%   77 30.08        
Jun 17 14:52 SW 20 10 Cloudy and Windy FEW090 OVC220 82 44     26%   80 30.04 29.78      
Jun 17 13:52 S 9 10 Mostly Cloudy FEW090 BKN170 BKN290 83 43     24%   81 30.02 29.75      
Jun 17 12:52 3 10 Mostly Cloudy FEW080 FEW200 BKN290 81 46     29%   80 30.05 29.78      
Jun 17 11:52 Calm 10 Mostly Cloudy FEW070 SCT140 BKN290 79 47     32%   78 30.09 29.82      
Jun 17 10:52 SW 7 10 Mostly Cloudy FEW060 SCT140 BKN250 77 49     37%   76 30.1 29.82      
Jun 17 09:52 E 13 10 Mostly Cloudy SCT140 BKN250 74 51     45%   73 30.1 29.84      
Jun 17 08:52   10 Mostly Cloudy FEW040 FEW110 BKN250 72 52     49%   71 30.1 29.85      
Jun 17 07:52   10 Mostly Cloudy FEW035 FEW110 BKN250 68 52     57%     30.09 29.83      
Jun 17 06:52   10 Mostly Cloudy FEW035 FEW110 BKN250 67 51     57%     30.08 29.83      
Jun 17 05:52   10 Mostly Cloudy FEW035 BKN110 BKN200 67 50     55%     30.07 29.82     0
Jun 17 04:52   10 Mostly Cloudy FEW080 BKN110 BKN200 69 48     47%     30.06 29.79      
Jun 17 03:52 NW 6 10 Mostly Cloudy SCT080 BKN110 BKN200 69 49     49%     30.06 29.79 0    
Jun 17 02:52   10 Cloudy FEW070 BKN110 OVC140 69 48     47%     30.04 29.77 0 0  
Jun 17 01:52   10 Cloudy FEW070 BKN100 OVC140 71 47     42%   70 30.03 29.76 0    
Jun 17 00:52 NE 10 10 Mostly Cloudy BKN110 BKN140 BKN250 73 46     38%   72 30.05 29.78      
Jun 16 23:52 E 13 10 Clear   76 43     31%   75 30.02 29.74     0
Jun 16 22:52 N 3 10 Mostly Cloudy SCT100 BKN160 BKN250 80 38     22%   79 30.02 29.74 0    
Jun 16 21:52 SW 3 10 Mostly Cloudy SCT120 BKN170 BKN250 79 40     25%   78 30 29.74      
Jun 16 20:52 WSW 6 10 Mostly Cloudy SCT120 BKN150 BKN250 80 38     22%   79 29.99 29.75      
Jun 16 19:52 WSW 5 10 Mostly Cloudy SCT140 BKN170 BKN250 82 37     20%   80 29.98 29.74      
Jun 16 18:52 SW 17 10 Mostly Cloudy BKN170 BKN250 82 38     21%   80 29.99 29.75      
Jun 16 17:52 N 10 10 Mostly Cloudy FEW110 BKN150 BKN250 83 38     20%   81 29.98 29.74      
Jun 16 16:52 N 15 10 Mostly Cloudy FEW120 SCT170 BKN250 84 38     19%   81 29.98 29.73      
Jun 16 15:52 W 8 10 Partly Cloudy SCT120 SCT250 86 35     16%   83 29.99 29.73      
Jun 16 14:52 NW 7 10 Partly Cloudy SCT120 SCT250 87 34     15%   84 30 29.74      
Jun 16 13:52 5 10 Partly Cloudy SCT120 SCT250 84 39     20%   81 30.02 29.77      
Jun 16 12:52 Calm 10 Partly Cloudy SCT120 83 40     22%   81 30.05 29.79      
Jun 16 11:52 3 10 Mostly Clear FEW120 81 41     24%   80 30.07 29.82      
Jun 16 10:52 3 10 Mostly Clear FEW120 76 42     30%   75 30.08 29.84      
Jun 16 09:52 3 10 Mostly Clear FEW120 72 45     38%   71 30.09 29.85      
Jun 16 08:52 N 8 10 Mostly Clear FEW120 66 46     48%     30.1 29.87      
Jun 16 07:52 N 8 10 Mostly Clear FEW120 62 46     56%     30.11 29.89      
Jun 16 06:52 N 7 10 Partly Cloudy SCT120 60 44     55%     30.1 29.88      
Jun 16 05:52 N 8 10 Partly Cloudy SCT110 60 44     55%     30.08 29.84      
Jun 16 04:52 N 6 10 Mostly Clear FEW150 61 45     56%     30.07 29.83      
Jun 16 03:52 N 9 10 Mostly Cloudy BKN150 63 46     54%     30.06 29.81      
Jun 16 02:52 N 10 10 Mostly Cloudy BKN120 64 46     52%     30.06 29.81      
Jun 16 01:52 N 11 10 Partly Cloudy SCT140 64 45     50%     30.05 29.8      
May 15 11:52 SSE 7 10 Partly Cloudy SCT110 78 24     13%   76 30.13 29.88      
May 14 18:52 W 6 10 Mostly Cloudy FEW110 BKN150 80 27     14%   78 29.95 29.73      
May 14 17:52 W 8 10 Mostly Cloudy SCT110 BKN150 80 28     15%   78 29.96 29.73      
May 14 11:52 WSW 10 10 Mostly Clear FEW100 73 26     17%   71 30.1 29.87      
May 13 17:52   10 Partly Cloudy FEW130 SCT250 84 18     9%   80 29.92 29.69      
May 13 05:52 SE 7 10 Clear CLR 56 26     31%     30.06 29.83      
May 12 16:52 SW 18 10 Mostly Clear FEW120 FEW250 86 20     9%   82 29.89 29.65      
May 12 00:52 SE 7 10 Mostly Clear FEW250 66 22     19%     29.93 29.67      
May 11 20:52 W 10 10 Mostly Cloudy FEW130 BKN250 80 20     11%   78 29.85 29.57      
May 11 19:52 W 15 10 Mostly Cloudy FEW130 BKN250 82 20     10%   79 29.81 29.54      
May 11 14:52   10 Mostly Cloudy FEW140 SCT190 BKN280 88 23     9%   84 29.81 29.51      
Jun 11 21:52 SSE 9 10 Clear   76 5     6%   74 29.94 29.67      
Jun 11 13:52 3 10 Clear CLR 86 9     5%   82 29.97 29.68      
Jun 11 10:52 Calm 10 Mostly Clear FEW220 79 15     9%   77 30.01 29.75      
Jun 10 06:52 ESE 5 10 Clear CLR 65 31     28%     30.01 29.72      
Jun 09 01:52   10 Clear   71 48     44%   70 30.04 29.76      
Jun 08 22:42   10 Mostly Cloudy FEW150 BKN250 76        %     30.04        
Jun 08 20:52 NNW 10 10 Mostly Cloudy FEW160 BKN250 86 19     8%   82 29.98 29.71      
Jun 08 19:52 NW 14 10 Mostly Cloudy SCT160 BKN250 90 14     6%   85 29.97 29.68      
Jun 08 00:52 SE 8 10 Mostly Cloudy FEW140 BKN250 70 47     44%     30.19 29.93      
Jun 07 07:52 E 10 10 Partly Cloudy SCT250 69 48     47%     30.24 29.99      
Jun 05 19:52 ENE 9 10 Mostly Cloudy BKN130 BKN250 89        %     30 29.72